{"data":{"norad_id":53498,"intl_designator":"2022-099AK","name":"STARLINK-4439","alt_names":[],"object_type":"PAYLOAD","status":"ACTIVE","operator":null,"country":"US","launch_date":"2022-08-12","launch_site_code":"AFWTR","launch_vehicle":null,"mission":null,"orbit_class":"UNKNOWN","rcs_meters":null,"size_class":null,"mass_kg":null,"dimensions":null,"purposes":["comms"],"wikipedia_slug":null,"has_3d_model":false,"image_url":null,"decayed_at":null,"tle_current":{"epoch":"2026-05-25T00:39:19.703232Z","epoch_age_seconds":69215,"freshness":"FRESH","line1":"1 53498U 22099AK  26145.02731138 -.00000301  00000+0 -16817-4 0  9996","line2":"2 53498  97.4512 266.0361 0002101 197.0826 163.0331 15.05668754207531","mean_motion":15.05668754,"eccentricity":0.0002101,"inclination_deg":97.4512,"raan_deg":266.0361,"arg_perigee_deg":197.0826,"mean_anomaly_deg":163.0331,"bstar":-1.6817e-5,"rev_number":20753,"period_min":95.638565665553,"perigee_km":547.99814180944,"apogee_km":550.90911539158,"semimajor_km":6927.5906286005,"source":"CELESTRAK","updated_at":"2026-05-25T13:38:17.436553Z"}}}